Location: Niles Junction
(37.5763°N, 121.9714°W)
Time: 03:29:00
(UTC+00:00)

Cosmos 44 Rocket - Pass Details

Date: 29 October 2020
Orbit: 642 x 748 km, 65.1° (Epoch: 23 November)

Event Time Altitude Azimuth Distance (km) Brightness Sun altitude
Exits shadow 12:10:28 37° 163° (SSE) 1,139 4.4 -28.2°
Drops below altitude 10° 12:13:36 10° 157° (SSE) 2,255 6.1 -27.6°
Sets 12:15:58 0° 156° (SSE) 3,173 7.0 -27.2°
